DAL1322 KCHS-KATL

Flight info

Callsign DAL1322
Flight time 0h 52m
Altitude 28000
Route STUNO1 ALD EEWOK JJEDI3
Aircraft CRJ7/M-SDFGIRWY/S

Departure

Time 2026-05-06 17:59
Airport Charleston International Airport (KCHS)

Arrival

Time 2026-05-06 18:51
Airport Hartsfield Jackson Atlanta International Airport (KATL)
Time Latitude Longitude Altitude Speed Heading
2026-05-06 16:59 32.88552 -80.03535 36 ft 0 kts 247°
2026-05-06 17:47 32.88558 -80.03516 35 ft 4 kts 251°
2026-05-06 17:47 32.88564 -80.03485 35 ft 4 kts 266°
2026-05-06 17:47 32.88558 -80.03458 35 ft 4 kts 314°
2026-05-06 17:48 32.88539 -80.03446 34 ft 4 kts 349°
2026-05-06 17:48 32.88517 -80.03447 34 ft 4 kts 15°
2026-05-06 17:48 32.88494 -80.03462 34 ft 3 kts 30°
2026-05-06 17:48 32.88490 -80.03464 34 ft 0 kts 29°
2026-05-06 17:50 32.88491 -80.03464 34 ft 1 kts 29°
2026-05-06 17:50 32.88498 -80.03459 34 ft 2 kts 29°
2026-05-06 17:51 32.88515 -80.03450 34 ft 4 kts 15°
2026-05-06 17:51 32.88539 -80.03449 34 ft 3 kts 348°
2026-05-06 17:51 32.88557 -80.03457 35 ft 2 kts 337°
2026-05-06 17:51 32.88569 -80.03464 35 ft 2 kts 332°
2026-05-06 17:52 32.88578 -80.03470 35 ft 1 kts 330°
2026-05-06 17:52 32.88585 -80.03475 35 ft 1 kts 328°
2026-05-06 17:52 32.88596 -80.03483 36 ft 2 kts 328°
2026-05-06 17:52 32.88615 -80.03498 36 ft 4 kts 326°
2026-05-06 17:53 32.88642 -80.03528 36 ft 6 kts 307°
2026-05-06 17:53 32.88662 -80.03585 36 ft 9 kts 289°
2026-05-06 17:53 32.88702 -80.03645 37 ft 10 kts 345°
2026-05-06 17:53 32.88781 -80.03639 36 ft 13 kts
2026-05-06 17:54 32.88867 -80.03624 39 ft 12 kts
2026-05-06 17:54 32.88947 -80.03611 42 ft 11 kts
2026-05-06 17:54 32.89020 -80.03600 44 ft 11 kts
2026-05-06 17:54 32.89101 -80.03597 43 ft 12 kts
2026-05-06 17:55 32.89191 -80.03595 45 ft 14 kts
2026-05-06 17:55 32.89293 -80.03592 45 ft 16 kts
2026-05-06 17:55 32.89408 -80.03588 45 ft 17 kts
2026-05-06 17:55 32.89536 -80.03584 44 ft 19 kts
2026-05-06 17:56 32.89675 -80.03580 46 ft 20 kts
2026-05-06 17:56 32.89816 -80.03575 49 ft 20 kts
2026-05-06 17:56 32.89951 -80.03569 52 ft 19 kts
2026-05-06 17:56 32.90073 -80.03557 57 ft 17 kts 19°
2026-05-06 17:57 32.90167 -80.03524 60 ft 12 kts 346°
2026-05-06 17:57 32.90213 -80.03585 59 ft 9 kts 288°
2026-05-06 17:57 32.90214 -80.03620 62 ft 2 kts 241°
2026-05-06 17:57 32.90203 -80.03633 59 ft 0 kts 214°
2026-05-06 17:58 32.90194 -80.03640 62 ft 13 kts 211°
2026-05-06 17:58 32.89907 -80.03797 51 ft 75 kts 205°
2026-05-06 17:58 32.89275 -80.04134 49 ft 122 kts 205°
2026-05-06 17:59 32.88405 -80.04597 105 ft 150 kts 205°
2026-05-06 17:59 32.87479 -80.05105 681 ft 140 kts 206°
2026-05-06 17:59 32.86670 -80.05755 1103 ft 146 kts 225°
2026-05-06 17:59 32.86350 -80.06979 1210 ft 177 kts 278°
2026-05-06 18:00 32.86739 -80.08437 1517 ft 192 kts 283°
2026-05-06 18:00 32.87071 -80.09974 2072 ft 193 kts 278°
2026-05-06 18:00 32.87265 -80.11530 2735 ft 190 kts 272°
2026-05-06 18:00 32.87309 -80.13098 3353 ft 188 kts 268°
2026-05-06 18:01 32.87281 -80.14624 4052 ft 189 kts 265°
2026-05-06 18:01 32.87212 -80.16189 4818 ft 190 kts 265°
2026-05-06 18:01 32.87130 -80.17826 5345 ft 210 kts 265°
2026-05-06 18:01 32.87124 -80.19637 5818 ft 229 kts 277°
2026-05-06 18:02 32.87469 -80.21550 6366 ft 244 kts 284°
2026-05-06 18:02 32.87956 -80.23500 7102 ft 247 kts 285°
2026-05-06 18:02 32.88446 -80.25456 7901 ft 248 kts 284°
2026-05-06 18:02 32.88904 -80.27440 8689 ft 249 kts 283°
2026-05-06 18:03 32.89343 -80.29406 9507 ft 250 kts 283°
2026-05-06 18:03 32.89786 -80.31419 10269 ft 252 kts 282°
2026-05-06 18:03 32.90228 -80.33461 10818 ft 263 kts 282°
2026-05-06 18:03 32.90701 -80.35663 11033 ft 285 kts 283°
2026-05-06 18:04 32.91213 -80.38022 11345 ft 303 kts 283°
2026-05-06 18:04 32.91747 -80.40506 11803 ft 314 kts 283°
2026-05-06 18:04 32.92291 -80.43036 12520 ft 317 kts 283°
2026-05-06 18:04 32.92849 -80.45590 13249 ft 320 kts 283°
2026-05-06 18:05 32.93399 -80.48128 13953 ft 322 kts 283°
2026-05-06 18:05 32.93921 -80.50723 14639 ft 322 kts 280°
2026-05-06 18:05 32.94253 -80.53363 15354 ft 323 kts 277°
2026-05-06 18:05 32.94477 -80.56021 16053 ft 323 kts 276°
2026-05-06 18:06 32.94682 -80.58691 16716 ft 324 kts 276°
2026-05-06 18:06 32.94889 -80.61368 17365 ft 325 kts 277°
2026-05-06 18:06 32.95130 -80.64049 18017 ft 326 kts 277°
2026-05-06 18:06 32.95379 -80.66722 18709 ft 324 kts 277°
2026-05-06 18:07 32.95632 -80.69400 19155 ft 328 kts 278°
2026-05-06 18:07 32.95882 -80.72077 19576 ft 332 kts 277°
2026-05-06 18:07 32.96139 -80.74821 20000 ft 336 kts 277°
2026-05-06 18:07 32.96404 -80.77606 20412 ft 340 kts 278°
2026-05-06 18:08 32.96665 -80.80421 20816 ft 344 kts 278°
2026-05-06 18:08 32.96929 -80.83243 21384 ft 343 kts 277°
2026-05-06 18:08 32.97193 -80.86082 21764 ft 347 kts 277°
2026-05-06 18:08 32.97453 -80.88956 22143 ft 351 kts 277°
2026-05-06 18:09 32.97730 -80.91858 22555 ft 353 kts 278°
2026-05-06 18:09 32.98005 -80.94768 22986 ft 355 kts 278°
2026-05-06 18:09 32.98278 -80.97663 23333 ft 358 kts 278°
2026-05-06 18:09 32.98558 -81.00629 23686 ft 362 kts 278°
2026-05-06 18:10 32.98835 -81.03612 24022 ft 363 kts 278°
2026-05-06 18:10 32.99114 -81.06609 24406 ft 362 kts 278°
2026-05-06 18:10 32.99392 -81.09573 24894 ft 360 kts 278°
2026-05-06 18:10 32.99669 -81.12548 25236 ft 362 kts 278°
2026-05-06 18:11 32.99945 -81.15535 25562 ft 364 kts 278°
2026-05-06 18:11 33.00221 -81.18535 25880 ft 365 kts 278°
2026-05-06 18:11 33.00495 -81.21508 26184 ft 367 kts 278°
2026-05-06 18:11 33.00772 -81.24535 26486 ft 368 kts 278°
2026-05-06 18:12 33.01100 -81.27560 26773 ft 368 kts 284°
2026-05-06 18:12 33.01911 -81.30452 27074 ft 369 kts 291°
2026-05-06 18:12 33.02938 -81.33254 27344 ft 370 kts 295°
2026-05-06 18:12 33.04140 -81.35978 27613 ft 372 kts 298°
2026-05-06 18:13 33.05406 -81.38680 27865 ft 375 kts 298°
2026-05-06 18:13 33.06686 -81.41408 27977 ft 379 kts 298°
2026-05-06 18:13 33.09154 -81.46929 28047 ft 380 kts 297°
2026-05-06 18:14 33.11625 -81.52523 28060 ft 382 kts 297°
2026-05-06 18:14 33.14108 -81.58145 28055 ft 384 kts 297°
2026-05-06 18:15 33.16597 -81.63794 28053 ft 385 kts 297°
2026-05-06 18:15 33.19069 -81.69405 28048 ft 384 kts 296°
2026-05-06 18:16 33.21542 -81.75036 28043 ft 382 kts 296°
2026-05-06 18:16 33.24011 -81.80650 28038 ft 381 kts 296°
2026-05-06 18:17 33.26004 -81.86447 28039 ft 377 kts 282°
2026-05-06 18:17 33.26859 -81.92611 28034 ft 375 kts 277°
2026-05-06 18:18 33.27102 -81.98791 28030 ft 374 kts 274°
2026-05-06 18:18 33.27280 -82.04985 28039 ft 372 kts 275°
2026-05-06 18:19 33.27542 -82.11146 28038 ft 370 kts 275°
2026-05-06 18:19 33.27805 -82.17283 28038 ft 369 kts 275°
2026-05-06 18:20 33.28060 -82.23354 28043 ft 368 kts 275°
2026-05-06 18:20 33.28315 -82.29448 28054 ft 367 kts 275°
2026-05-06 18:21 33.28564 -82.35526 28049 ft 366 kts 275°
2026-05-06 18:21 33.28811 -82.41582 28053 ft 364 kts 275°
2026-05-06 18:22 33.29052 -82.47578 28049 ft 363 kts 274°
2026-05-06 18:22 33.29290 -82.53594 28067 ft 361 kts 275°
2026-05-06 18:23 33.29524 -82.59584 28067 ft 360 kts 274°
2026-05-06 18:23 33.29757 -82.65564 27983 ft 362 kts 274°
2026-05-06 18:24 33.29873 -82.68582 27784 ft 366 kts 274°
2026-05-06 18:24 33.29989 -82.71638 27586 ft 370 kts 274°
2026-05-06 18:24 33.30106 -82.74743 27158 ft 376 kts 274°
2026-05-06 18:24 33.30225 -82.77826 26681 ft 376 kts 274°
2026-05-06 18:25 33.30344 -82.80946 26206 ft 376 kts 274°
2026-05-06 18:25 33.30459 -82.84065 25742 ft 375 kts 274°
2026-05-06 18:25 33.30524 -82.87180 25276 ft 376 kts 270°
2026-05-06 18:25 33.30354 -82.90303 24821 ft 377 kts 266°
2026-05-06 18:26 33.30029 -82.93404 24374 ft 373 kts 264°
2026-05-06 18:26 33.29629 -82.96437 23930 ft 366 kts 264°
2026-05-06 18:26 33.29228 -82.99412 23467 ft 360 kts 264°
2026-05-06 18:26 33.28847 -83.02306 22946 ft 355 kts 264°
2026-05-06 18:27 33.28493 -83.05202 22426 ft 350 kts 264°
2026-05-06 18:27 33.28150 -83.08063 21922 ft 346 kts 264°
2026-05-06 18:27 33.27809 -83.10892 21419 ft 342 kts 264°
2026-05-06 18:27 33.27473 -83.13683 20928 ft 336 kts 264°
2026-05-06 18:28 33.27142 -83.16422 20455 ft 331 kts 264°
2026-05-06 18:28 33.26819 -83.19123 19976 ft 326 kts 264°
2026-05-06 18:28 33.26500 -83.21746 19511 ft 322 kts 264°
2026-05-06 18:28 33.26180 -83.24375 19052 ft 318 kts 263°
2026-05-06 18:29 33.25864 -83.26978 18594 ft 315 kts 263°
2026-05-06 18:29 33.25551 -83.29562 18174 ft 314 kts 263°
2026-05-06 18:29 33.25236 -83.32143 17707 ft 313 kts 263°
2026-05-06 18:29 33.24920 -83.34715 17248 ft 313 kts 263°
2026-05-06 18:30 33.24607 -83.37285 16799 ft 312 kts 263°
2026-05-06 18:30 33.24293 -83.39846 16357 ft 312 kts 263°
2026-05-06 18:30 33.23982 -83.42373 15922 ft 311 kts 262°
2026-05-06 18:30 33.23675 -83.44928 15499 ft 309 kts 262°
2026-05-06 18:31 33.23381 -83.47458 15069 ft 305 kts 263°
2026-05-06 18:31 33.23089 -83.49953 14675 ft 301 kts 262°
2026-05-06 18:31 33.22794 -83.52405 14340 ft 295 kts 262°
2026-05-06 18:31 33.22506 -83.54813 14017 ft 290 kts 262°
2026-05-06 18:32 33.22219 -83.57184 13680 ft 286 kts 262°
2026-05-06 18:32 33.21931 -83.59520 13316 ft 283 kts 261°
2026-05-06 18:32 33.21647 -83.61798 12967 ft 280 kts 261°
2026-05-06 18:32 33.21362 -83.64084 12623 ft 277 kts 261°
2026-05-06 18:33 33.21077 -83.66345 12265 ft 274 kts 261°
2026-05-06 18:33 33.20801 -83.68588 11919 ft 272 kts 261°
2026-05-06 18:33 33.20522 -83.70811 11581 ft 270 kts 261°
2026-05-06 18:33 33.20243 -83.73016 11247 ft 268 kts 260°
2026-05-06 18:34 33.19962 -83.75203 10943 ft 265 kts 260°
2026-05-06 18:34 33.19678 -83.77358 10672 ft 261 kts 259°
2026-05-06 18:34 33.19404 -83.79452 10419 ft 257 kts 260°
2026-05-06 18:34 33.19511 -83.81547 10277 ft 255 kts 287°
2026-05-06 18:35 33.20320 -83.83398 10280 ft 247 kts 294°
2026-05-06 18:35 33.21312 -83.85094 10048 ft 254 kts 303°
2026-05-06 18:35 33.22549 -83.86637 9744 ft 260 kts 309°
2026-05-06 18:35 33.23875 -83.88125 9449 ft 263 kts 310°
2026-05-06 18:36 33.25217 -83.89624 9146 ft 265 kts 310°
2026-05-06 18:36 33.26542 -83.91152 8857 ft 265 kts 309°
2026-05-06 18:36 33.27837 -83.92681 8575 ft 266 kts 309°
2026-05-06 18:36 33.29149 -83.94225 8365 ft 263 kts 309°
2026-05-06 18:37 33.30424 -83.95748 8259 ft 255 kts 308°
2026-05-06 18:37 33.31644 -83.97232 8253 ft 245 kts 308°
2026-05-06 18:37 33.32829 -83.98662 8201 ft 239 kts 308°
2026-05-06 18:37 33.33989 -84.00051 8147 ft 233 kts 308°
2026-05-06 18:38 33.35122 -84.01407 8091 ft 228 kts 308°
2026-05-06 18:38 33.36379 -84.02545 8024 ft 234 kts 333°
2026-05-06 18:38 33.37976 -84.02967 8000 ft 236 kts 344°
2026-05-06 18:38 33.39590 -84.03108 7972 ft 235 kts 351°
2026-05-06 18:39 33.41228 -84.03120 7887 ft 237 kts 353°
2026-05-06 18:39 33.42884 -84.03114 7804 ft 239 kts 352°
2026-05-06 18:39 33.44554 -84.03124 7702 ft 241 kts 352°
2026-05-06 18:40 33.47940 -84.02938 7508 ft 248 kts
2026-05-06 18:40 33.49651 -84.02589 7412 ft 250 kts
2026-05-06 18:40 33.51367 -84.02213 7308 ft 251 kts
2026-05-06 18:40 33.53088 -84.01853 7214 ft 251 kts
2026-05-06 18:41 33.54788 -84.01508 7152 ft 252 kts
2026-05-06 18:41 33.56513 -84.01136 7088 ft 252 kts
2026-05-06 18:41 33.58239 -84.00763 7044 ft 251 kts
2026-05-06 18:41 33.59952 -84.00394 7010 ft 250 kts
2026-05-06 18:42 33.61663 -84.00166 6855 ft 240 kts 346°
2026-05-06 18:42 33.63127 -84.00840 6699 ft 218 kts 316°
2026-05-06 18:42 33.64182 -84.02065 6513 ft 204 kts 295°
2026-05-06 18:42 33.64499 -84.03636 6340 ft 191 kts 264°
2026-05-06 18:43 33.64246 -84.05137 6193 ft 182 kts 255°
2026-05-06 18:43 33.63913 -84.06549 6159 ft 169 kts 253°
2026-05-06 18:43 33.63568 -84.07875 6004 ft 163 kts 252°
2026-05-06 18:43 33.63337 -84.09180 5858 ft 157 kts 264°
2026-05-06 18:44 33.63285 -84.10503 5721 ft 160 kts 266°
2026-05-06 18:44 33.63265 -84.11855 5565 ft 164 kts 267°
2026-05-06 18:44 33.63256 -84.13233 5403 ft 167 kts 267°
2026-05-06 18:44 33.63254 -84.14586 5234 ft 156 kts 265°
2026-05-06 18:45 33.63241 -84.15849 5016 ft 147 kts 267°
2026-05-06 18:45 33.63223 -84.17041 4810 ft 140 kts 265°
2026-05-06 18:45 33.63201 -84.18165 4606 ft 134 kts 265°
2026-05-06 18:45 33.63186 -84.19268 4376 ft 132 kts 265°
2026-05-06 18:46 33.63179 -84.20373 4189 ft 134 kts 265°
2026-05-06 18:46 33.63176 -84.21478 4096 ft 131 kts 265°
2026-05-06 18:46 33.63177 -84.22541 4042 ft 125 kts 265°
2026-05-06 18:46 33.63177 -84.23564 3920 ft 124 kts 265°
2026-05-06 18:47 33.63175 -84.24624 3725 ft 130 kts 265°
2026-05-06 18:47 33.63180 -84.25731 3525 ft 135 kts 265°
2026-05-06 18:47 33.63187 -84.26858 3345 ft 139 kts 265°
2026-05-06 18:47 33.63192 -84.28027 3171 ft 143 kts 265°
2026-05-06 18:48 33.63194 -84.29220 2982 ft 142 kts 264°
2026-05-06 18:48 33.63209 -84.30385 2871 ft 137 kts 265°
2026-05-06 18:48 33.63227 -84.31494 2766 ft 128 kts 265°
2026-05-06 18:48 33.63265 -84.32559 2598 ft 131 kts 266°
2026-05-06 18:49 33.63276 -84.33676 2401 ft 137 kts 262°
2026-05-06 18:49 33.63269 -84.34824 2236 ft 138 kts 262°
2026-05-06 18:49 33.63231 -84.35963 2122 ft 134 kts 262°
2026-05-06 18:49 33.63212 -84.37051 1918 ft 131 kts 263°
2026-05-06 18:50 33.63226 -84.38171 1716 ft 135 kts 262°
2026-05-06 18:50 33.63228 -84.39284 1572 ft 132 kts 259°
2026-05-06 18:50 33.63195 -84.40387 1362 ft 134 kts 259°
2026-05-06 18:50 33.63191 -84.41510 1155 ft 136 kts 264°
2026-05-06 18:51 33.63187 -84.42584 1004 ft 117 kts 267°
2026-05-06 18:51 33.63176 -84.43449 1006 ft 88 kts 271°
2026-05-06 18:51 33.63184 -84.43989 1002 ft 35 kts 277°
2026-05-06 18:51 33.63250 -84.44210 1004 ft 16 kts 300°
2026-05-06 18:52 33.63319 -84.44262 1004 ft 11 kts 11°
2026-05-06 18:52 33.63360 -84.44190 1004 ft 12 kts 86°
2026-05-06 18:52 33.63361 -84.44089 1004 ft 13 kts 89°
2026-05-06 18:52 33.63362 -84.43981 1004 ft 13 kts 91°
2026-05-06 18:53 33.63361 -84.43868 1004 ft 14 kts 90°
2026-05-06 18:53 33.63361 -84.43748 1004 ft 15 kts 89°
2026-05-06 18:53 33.63365 -84.43643 1004 ft 10 kts 70°
2026-05-06 18:53 33.63423 -84.43603 1004 ft 11 kts 356°
2026-05-06 18:54 33.63503 -84.43607 1004 ft 12 kts 359°
2026-05-06 18:54 33.63576 -84.43579 1004 ft 11 kts 61°
2026-05-06 18:54 33.63581 -84.43480 1004 ft 13 kts 90°
2026-05-06 18:54 33.63581 -84.43368 1004 ft 14 kts 90°
2026-05-06 18:55 33.63581 -84.43250 1004 ft 15 kts 90°
2026-05-06 18:55 33.63585 -84.43144 1004 ft 8 kts 73°
2026-05-06 18:55 33.63623 -84.43099 1004 ft 8 kts 15°
2026-05-06 18:55 33.63678 -84.43082 1004 ft 9 kts 31°
2026-05-06 18:56 33.63738 -84.43060 1004 ft 9 kts
2026-05-06 18:56 33.63807 -84.43064 1004 ft 10 kts 358°
2026-05-06 18:56 33.63878 -84.43064 1004 ft 10 kts
2026-05-06 18:56 33.63945 -84.43063 1004 ft 9 kts
2026-05-06 18:57 33.64008 -84.43064 1004 ft 9 kts 360°
2026-05-06 18:57 33.64073 -84.43064 1011 ft 10 kts 360°
2026-05-06 18:57 33.64140 -84.43064 1005 ft 10 kts 360°
2026-05-06 18:57 33.64211 -84.43064 1005 ft 10 kts
2026-05-06 18:58 33.64283 -84.43064 1005 ft 10 kts
2026-05-06 18:58 33.64336 -84.43045 1005 ft 7 kts 51°
2026-05-06 18:58 33.64341 -84.43004 1005 ft 4 kts 97°
2026-05-06 18:58 33.64340 -84.42994 1005 ft 0 kts 97°